{"data":{"norad_id":52848,"epoch":"2026-05-25T04:08:46.031136Z","epoch_age_seconds":63207,"freshness":"FRESH","line1":"1 52848U 22062U   26145.17275499 -.00000019  00000+0  16881-4 0  9999","line2":"2 52848  53.2118  50.7742 0001458  93.5723 266.5436 15.08831574217331","mean_motion":15.08831574,"eccentricity":0.0001458,"inclination_deg":53.2118,"raan_deg":50.7742,"arg_perigee_deg":93.5723,"mean_anomaly_deg":266.5436,"bstar":1.6881e-5,"rev_number":21733,"period_min":95.438087644367,"perigee_km":538.76051327929,"apogee_km":540.77777471088,"semimajor_km":6917.9061439951,"source":"CELESTRAK","updated_at":"2026-05-25T13:38:17.244389Z"}}